Time,TemperatureF,DewpointF,PressureIn,WindDirection,WindDirectionDegrees,WindSpeedMPH,WindSpeedGustMPH,Humidity,HourlyPrecipIn,Conditions,Clouds,dailyrainin,SoftwareType,DateUTC
2013-03-05 00:00:00,34.9,26.0,29.73,WNW,292,4.2,15.6,69,0.00,,,0.00,Rainwise IP-100,2013-03-05 05:00:00,
2013-03-05 00:01:00,34.9,26.0,29.73,WNW,292,11.7,15.6,70,0.00,,,0.00,Rainwise IP-100,2013-03-05 05:01:00,
2013-03-05 00:06:00,34.9,26.0,29.73,West,270,7.9,16.3,70,0.00,,,0.00,Rainwise IP-100,2013-03-05 05:06:00,
2013-03-05 00:11:00,35.0,26.0,29.74,WNW,292,19.4,19.4,70,0.00,,,0.00,Rainwise IP-100,2013-03-05 05:11:00,
2013-03-05 00:16:00,35.0,26.0,29.74,WNW,292,7.7,19.4,70,0.00,,,0.00,Rainwise IP-100,2013-03-05 05:16:00,
2013-03-05 00:21:00,35.0,26.0,29.75,WNW,292,11.2,15.9,69,0.00,,,0.00,Rainwise IP-100,2013-03-05 05:21:00,
2013-03-05 00:26:00,35.0,26.0,29.74,WNW,292,10.0,14.7,69,0.00,,,0.00,Rainwise IP-100,2013-03-05 05:26:00,
2013-03-05 00:31:00,34.9,26.0,29.74,WNW,292,8.2,14.9,69,0.00,,,0.00,Rainwise IP-100,2013-03-05 05:31:00,
2013-03-05 00:36:00,34.9,26.0,29.75,WNW,292,8.2,15.4,69,0.00,,,0.00,Rainwise IP-100,2013-03-05 05:36:00,
2013-03-05 00:41:00,34.8,26.0,29.75,WNW,292,12.4,12.6,69,0.00,,,0.00,Rainwise IP-100,2013-03-05 05:41:00,
2013-03-05 00:46:00,34.8,26.0,29.75,NW,315,5.6,15.9,70,0.00,,,0.00,Rainwise IP-100,2013-03-05 05:46:00,
2013-03-05 00:51:00,34.6,26.0,29.75,WNW,292,6.1,12.6,70,0.00,,,0.00,Rainwise IP-100,2013-03-05 05:51:00,
2013-03-05 00:56:00,34.5,26.0,29.75,WNW,292,4.0,13.5,70,0.00,,,0.00,Rainwise IP-100,2013-03-05 05:56:00,
2013-03-05 01:01:00,34.5,26.0,29.75,West,270,8.2,13.3,70,0.00,,,0.00,Rainwise IP-100,2013-03-05 06:01:00,
2013-03-05 01:06:00,34.5,26.0,29.75,WNW,292,9.6,12.8,70,0.00,,,0.00,Rainwise IP-100,2013-03-05 06:06:00,
2013-03-05 01:11:00,34.4,26.0,29.75,WNW,292,3.7,14.9,70,0.00,,,0.00,Rainwise IP-100,2013-03-05 06:11:00,
2013-03-05 01:16:00,34.4,26.0,29.76,WNW,292,10.3,15.2,70,0.00,,,0.00,Rainwise IP-100,2013-03-05 06:16:00,
2013-03-05 01:21:00,34.4,26.0,29.76,WNW,292,9.6,20.3,70,0.00,,,0.00,Rainwise IP-100,2013-03-05 06:21:00,
2013-03-05 01:26:00,34.4,26.0,29.76,NE,45,5.4,22.4,70,0.00,,,0.00,Rainwise IP-100,2013-03-05 06:26:00,
2013-03-05 01:31:00,34.4,26.0,29.76,WNW,292,9.1,13.3,70,0.00,,,0.00,Rainwise IP-100,2013-03-05 06:31:00,
2013-03-05 01:36:00,34.3,26.0,29.76,NW,315,5.6,14.7,70,0.00,,,0.00,Rainwise IP-100,2013-03-05 06:36:00,
2013-03-05 01:41:00,34.2,26.0,29.76,WNW,292,13.5,14.7,70,0.00,,,0.00,Rainwise IP-100,2013-03-05 06:41:00,
2013-03-05 01:46:00,34.1,26.0,29.76,WNW,292,2.1,18.7,71,0.00,,,0.00,Rainwise IP-100,2013-03-05 06:46:00,
2013-03-05 01:51:00,34.0,26.0,29.77,West,270,3.0,17.5,71,0.00,,,0.00,Rainwise IP-100,2013-03-05 06:51:00,
2013-03-05 01:56:00,33.9,26.0,29.76,WSW,247,7.0,11.9,71,0.00,,,0.00,Rainwise IP-100,2013-03-05 06:56:00,
2013-03-05 02:01:00,33.9,26.0,29.77,WNW,292,9.3,16.8,71,0.00,,,0.00,Rainwise IP-100,2013-03-05 07:01:00,
2013-03-05 02:06:00,33.9,26.0,29.77,NW,315,4.7,16.3,71,0.00,,,0.00,Rainwise IP-100,2013-03-05 07:06:00,
2013-03-05 02:11:00,33.9,26.0,29.77,WNW,292,11.9,14.0,72,0.00,,,0.00,Rainwise IP-100,2013-03-05 07:11:00,
2013-03-05 02:16:00,33.8,26.0,29.76,WNW,292,12.8,19.6,72,0.00,,,0.00,Rainwise IP-100,2013-03-05 07:16:00,
2013-03-05 02:21:00,33.8,26.0,29.77,NNW,337,7.7,19.6,72,0.00,,,0.00,Rainwise IP-100,2013-03-05 07:21:00,
2013-03-05 02:26:00,33.7,26.0,29.77,WNW,292,7.7,14.5,72,0.00,,,0.00,Rainwise IP-100,2013-03-05 07:26:00,
2013-03-05 02:31:00,33.6,26.0,29.77,WNW,292,7.2,13.3,72,0.00,,,0.00,Rainwise IP-100,2013-03-05 07:31:00,
2013-03-05 02:34:00,33.6,26.0,29.76,WNW,292,5.8,13.8,72,0.00,,,0.00,Rainwise IP-100,2013-03-05 07:34:00,
2013-03-05 02:39:00,33.6,26.0,29.77,West,270,6.8,14.7,72,0.00,,,0.00,Rainwise IP-100,2013-03-05 07:39:00,
2013-03-05 02:44:00,33.6,26.0,29.77,WNW,292,7.0,15.6,72,0.00,,,0.00,Rainwise IP-100,2013-03-05 07:44:00,
2013-03-05 02:49:00,33.5,28.0,29.77,WNW,292,9.6,13.3,73,0.00,,,0.00,Rainwise IP-100,2013-03-05 07:49:00,
2013-03-05 02:54:00,33.3,26.0,29.77,WNW,292,8.2,16.1,72,0.00,,,0.00,Rainwise IP-100,2013-03-05 07:54:00,
2013-03-05 02:59:00,33.2,26.0,29.77,NNW,337,4.9,12.8,72,0.00,,,0.00,Rainwise IP-100,2013-03-05 07:59:00,
2013-03-05 03:04:00,33.2,26.0,29.78,WNW,292,4.7,12.8,73,0.00,,,0.00,Rainwise IP-100,2013-03-05 08:04:00,
2013-03-05 03:09:00,33.2,26.0,29.77,NNW,337,7.0,15.4,73,0.00,,,0.00,Rainwise IP-100,2013-03-05 08:09:00,
2013-03-05 03:14:00,33.3,26.0,29.78,WNW,292,9.8,15.6,72,0.00,,,0.00,Rainwise IP-100,2013-03-05 08:14:00,
2013-03-05 03:19:00,33.4,26.0,29.78,WNW,292,7.5,14.7,72,0.00,,,0.00,Rainwise IP-100,2013-03-05 08:19:00,
2013-03-05 03:24:00,33.5,26.0,29.78,WNW,292,9.6,15.4,72,0.00,,,0.00,Rainwise IP-100,2013-03-05 08:24:00,
2013-03-05 03:29:00,33.6,26.0,29.78,WNW,292,10.5,17.7,71,0.00,,,0.00,Rainwise IP-100,2013-03-05 08:29:00,
2013-03-05 03:34:00,33.6,26.0,29.78,WNW,292,9.3,12.6,71,0.00,,,0.00,Rainwise IP-100,2013-03-05 08:34:00,
2013-03-05 03:39:00,33.6,26.0,29.79,NNW,337,3.7,16.3,71,0.00,,,0.00,Rainwise IP-100,2013-03-05 08:39:00,
2013-03-05 03:44:00,33.6,26.0,29.79,NNW,337,2.1,15.4,71,0.00,,,0.00,Rainwise IP-100,2013-03-05 08:44:00,
2013-03-05 03:49:00,33.6,26.0,29.80,WSW,247,4.9,17.3,71,0.00,,,0.00,Rainwise IP-100,2013-03-05 08:49:00,
2013-03-05 03:54:00,33.6,26.0,29.80,WNW,292,3.3,18.7,71,0.00,,,0.00,Rainwise IP-100,2013-03-05 08:54:00,
2013-03-05 03:59:00,33.7,26.0,29.80,NNW,337,2.6,14.9,71,0.00,,,0.00,Rainwise IP-100,2013-03-05 08:59:00,
2013-03-05 04:04:00,33.7,26.0,29.80,WNW,292,7.5,18.0,71,0.00,,,0.00,Rainwise IP-100,2013-03-05 09:04:00,
2013-03-05 04:09:00,33.8,26.0,29.80,WNW,292,8.6,13.5,71,0.00,,,0.00,Rainwise IP-100,2013-03-05 09:09:00,
2013-03-05 04:14:00,33.8,26.0,29.81,WNW,292,12.6,13.1,71,0.00,,,0.00,Rainwise IP-100,2013-03-05 09:14:00,
2013-03-05 04:19:00,33.8,26.0,29.81,WNW,292,8.6,15.2,71,0.00,,,0.00,Rainwise IP-100,2013-03-05 09:19:00,
2013-03-05 04:24:00,33.8,26.0,29.81,WNW,292,12.6,16.8,71,0.00,,,0.00,Rainwise IP-100,2013-03-05 09:24:00,
2013-03-05 04:29:00,33.8,26.0,29.81,WNW,292,10.3,16.6,70,0.00,,,0.00,Rainwise IP-100,2013-03-05 09:29:00,
2013-03-05 04:34:00,33.8,26.0,29.82,NW,315,8.2,16.6,70,0.00,,,0.00,Rainwise IP-100,2013-03-05 09:34:00,
2013-03-05 04:39:00,33.8,26.0,29.82,WNW,292,16.8,16.8,70,0.00,,,0.00,Rainwise IP-100,2013-03-05 09:39:00,
2013-03-05 04:44:00,33.7,26.0,29.82,WNW,292,4.9,16.8,70,0.00,,,0.00,Rainwise IP-100,2013-03-05 09:44:00,
2013-03-05 04:49:00,33.7,26.0,29.83,WNW,292,9.3,14.7,70,0.00,,,0.00,Rainwise IP-100,2013-03-05 09:49:00,
2013-03-05 04:54:00,33.6,26.0,29.83,NW,315,1.4,14.9,71,0.00,,,0.00,Rainwise IP-100,2013-03-05 09:54:00,
2013-03-05 04:59:00,33.5,26.0,29.83,NW,315,4.0,14.7,71,0.00,,,0.00,Rainwise IP-100,2013-03-05 09:59:00,
2013-03-05 05:04:00,33.4,24.0,29.83,WNW,292,6.1,11.7,71,0.00,,,0.00,Rainwise IP-100,2013-03-05 10:04:00,
2013-03-05 05:09:00,33.3,24.0,29.83,WNW,292,5.6,11.9,71,0.00,,,0.00,Rainwise IP-100,2013-03-05 10:09:00,
2013-03-05 05:14:00,33.4,24.0,29.84,WNW,292,9.1,17.0,71,0.00,,,0.00,Rainwise IP-100,2013-03-05 10:14:00,
2013-03-05 05:20:00,33.5,26.0,29.84,NNW,337,5.6,13.3,71,0.00,,,0.00,Rainwise IP-100,2013-03-05 10:20:00,
2013-03-05 05:25:00,33.6,26.0,29.84,WNW,292,10.5,11.2,71,0.00,,,0.00,Rainwise IP-100,2013-03-05 10:25:00,
2013-03-05 05:30:00,33.7,26.0,29.84,WNW,292,12.4,14.5,71,0.00,,,0.00,Rainwise IP-100,2013-03-05 10:30:00,
2013-03-05 05:35:00,33.7,26.0,29.85,WNW,292,8.6,14.2,70,0.00,,,0.00,Rainwise IP-100,2013-03-05 10:35:00,
2013-03-05 05:40:00,33.7,26.0,29.85,WNW,292,11.0,13.3,70,0.00,,,0.00,Rainwise IP-100,2013-03-05 10:40:00,
2013-03-05 05:45:00,33.7,26.0,29.85,WNW,292,4.2,14.2,71,0.00,,,0.00,Rainwise IP-100,2013-03-05 10:45:00,
2013-03-05 05:50:00,33.8,26.0,29.85,WNW,292,3.3,17.0,71,0.00,,,0.00,Rainwise IP-100,2013-03-05 10:50:00,
2013-03-05 05:55:00,33.8,26.0,29.85,WNW,292,11.4,15.4,71,0.00,,,0.00,Rainwise IP-100,2013-03-05 10:55:00,
2013-03-05 06:00:00,33.8,26.0,29.86,West,270,4.4,16.1,71,0.00,,,0.00,Rainwise IP-100,2013-03-05 11:00:00,
2013-03-05 06:05:00,33.7,26.0,29.86,WNW,292,5.6,11.9,71,0.00,,,0.00,Rainwise IP-100,2013-03-05 11:05:00,
2013-03-05 06:10:00,33.7,26.0,29.86,WNW,292,8.4,12.8,71,0.00,,,0.00,Rainwise IP-100,2013-03-05 11:10:00,
2013-03-05 06:15:00,33.7,26.0,29.86,WNW,292,10.5,12.8,71,0.00,,,0.00,Rainwise IP-100,2013-03-05 11:15:00,
2013-03-05 06:20:00,33.8,26.0,29.86,WSW,247,2.1,11.2,71,0.00,,,0.00,Rainwise IP-100,2013-03-05 11:20:00,
2013-03-05 06:25:00,33.8,26.0,29.87,WNW,292,7.0,11.9,71,0.00,,,0.00,Rainwise IP-100,2013-03-05 11:25:00,
2013-03-05 06:30:00,33.8,26.0,29.87,WNW,292,7.0,12.8,71,0.00,,,0.00,Rainwise IP-100,2013-03-05 11:30:00,
2013-03-05 06:35:00,33.8,26.0,29.87,NW,315,9.1,16.6,71,0.00,,,0.00,Rainwise IP-100,2013-03-05 11:35:00,
2013-03-05 06:40:00,33.8,26.0,29.87,WNW,292,4.4,12.8,71,0.00,,,0.00,Rainwise IP-100,2013-03-05 11:40:00,
2013-03-05 06:45:00,33.8,26.0,29.88,NW,315,10.3,14.0,71,0.00,,,0.00,Rainwise IP-100,2013-03-05 11:45:00,
2013-03-05 06:50:00,33.8,26.0,29.88,WNW,292,6.5,12.6,71,0.00,,,0.00,Rainwise IP-100,2013-03-05 11:50:00,
2013-03-05 06:55:00,33.9,26.0,29.88,WNW,292,5.8,14.5,71,0.00,,,0.00,Rainwise IP-100,2013-03-05 11:55:00,
2013-03-05 07:00:00,34.0,26.0,29.89,WNW,292,5.8,13.1,71,0.00,,,0.00,Rainwise IP-100,2013-03-05 12:00:00,
2013-03-05 07:05:00,34.1,26.0,29.89,WNW,292,8.9,13.5,71,0.00,,,0.00,Rainwise IP-100,2013-03-05 12:05:00,
2013-03-05 07:10:00,34.2,26.0,29.89,WNW,292,7.5,14.2,71,0.00,,,0.00,Rainwise IP-100,2013-03-05 12:10:00,
2013-03-05 07:15:00,34.3,26.0,29.89,WNW,292,15.9,15.9,71,0.00,,,0.00,Rainwise IP-100,2013-03-05 12:15:00,
2013-03-05 07:20:00,34.5,26.0,29.90,NW,315,13.5,19.6,71,0.00,,,0.00,Rainwise IP-100,2013-03-05 12:20:00,
2013-03-05 07:25:00,34.7,26.0,29.90,WNW,292,9.3,14.7,70,0.00,,,0.00,Rainwise IP-100,2013-03-05 12:25:00,
2013-03-05 07:30:00,34.8,26.0,29.90,WSW,247,2.6,15.9,70,0.00,,,0.00,Rainwise IP-100,2013-03-05 12:30:00,
2013-03-05 07:35:00,34.9,26.0,29.90,NNW,337,5.8,18.4,70,0.00,,,0.00,Rainwise IP-100,2013-03-05 12:35:00,
2013-03-05 07:40:00,34.9,26.0,29.90,NW,315,11.0,18.2,70,0.00,,,0.00,Rainwise IP-100,2013-03-05 12:40:00,
2013-03-05 07:45:00,35.0,26.0,29.90,NW,315,6.3,15.6,70,0.00,,,0.00,Rainwise IP-100,2013-03-05 12:45:00,
2013-03-05 07:50:00,35.1,26.0,29.91,NW,315,11.9,17.3,70,0.00,,,0.00,Rainwise IP-100,2013-03-05 12:50:00,
2013-03-05 07:55:00,35.2,26.0,29.90,WNW,292,7.0,14.7,70,0.00,,,0.00,Rainwise IP-100,2013-03-05 12:55:00,
2013-03-05 08:00:00,35.3,26.0,29.91,WNW,292,15.2,20.5,71,0.00,,,0.00,Rainwise IP-100,2013-03-05 13:00:00,
2013-03-05 08:05:00,35.5,28.0,29.90,WNW,292,8.6,15.9,71,0.00,,,0.00,Rainwise IP-100,2013-03-05 13:05:00,
2013-03-05 08:10:00,35.8,28.0,29.91,NW,315,9.1,16.3,70,0.00,,,0.00,Rainwise IP-100,2013-03-05 13:10:00,
2013-03-05 08:15:00,36.1,28.0,29.91,NNW,337,9.6,20.3,70,0.00,,,0.00,Rainwise IP-100,2013-03-05 13:15:00,
2013-03-05 08:20:00,36.3,28.0,29.91,WNW,292,16.3,21.0,70,0.00,,,0.00,Rainwise IP-100,2013-03-05 13:20:00,
2013-03-05 08:25:00,36.5,28.0,29.91,WNW,292,10.7,21.0,70,0.00,,,0.00,Rainwise IP-100,2013-03-05 13:25:00,
2013-03-05 08:30:00,36.7,28.0,29.91,NW,315,13.5,17.7,70,0.00,,,0.00,Rainwise IP-100,2013-03-05 13:30:00,
2013-03-05 08:35:00,37.0,28.0,29.90,NNW,337,6.8,21.7,70,0.00,,,0.00,Rainwise IP-100,2013-03-05 13:35:00,
2013-03-05 08:40:00,37.2,28.0,29.91,WSW,247,9.8,19.4,70,0.00,,,0.00,Rainwise IP-100,2013-03-05 13:40:00,
2013-03-05 08:45:00,37.4,28.0,29.91,WNW,292,14.0,24.7,70,0.00,,,0.00,Rainwise IP-100,2013-03-05 13:45:00,
2013-03-05 08:50:00,37.5,29.0,29.92,WNW,292,8.2,18.2,70,0.00,,,0.00,Rainwise IP-100,2013-03-05 13:50:00,
2013-03-05 08:55:00,37.9,29.0,29.92,NNW,337,6.1,20.3,70,0.00,,,0.00,Rainwise IP-100,2013-03-05 13:55:00,
2013-03-05 09:00:00,38.1,29.0,29.91,WNW,292,7.9,19.6,70,0.00,,,0.00,Rainwise IP-100,2013-03-05 14:00:00,
2013-03-05 09:05:00,38.3,29.0,29.91,WNW,292,17.5,26.1,70,0.00,,,0.00,Rainwise IP-100,2013-03-05 14:05:00,
2013-03-05 09:10:00,38.4,29.0,29.92,NW,315,5.6,23.8,70,0.00,,,0.00,Rainwise IP-100,2013-03-05 14:10:00,
2013-03-05 09:15:00,38.4,29.0,29.92,NW,315,14.7,17.3,70,0.00,,,0.00,Rainwise IP-100,2013-03-05 14:15:00,
2013-03-05 09:20:00,38.5,31.0,29.92,WNW,292,9.3,22.6,70,0.00,,,0.00,Rainwise IP-100,2013-03-05 14:20:00,
2013-03-05 09:25:00,38.7,31.0,29.92,NNW,337,10.3,18.9,70,0.00,,,0.00,Rainwise IP-100,2013-03-05 14:25:00,
2013-03-05 09:30:00,38.7,31.0,29.91,WNW,292,8.9,20.8,71,0.00,,,0.00,Rainwise IP-100,2013-03-05 14:30:00,
2013-03-05 09:35:00,38.6,31.0,29.92,WNW,292,11.9,19.6,71,0.00,,,0.00,Rainwise IP-100,2013-03-05 14:35:00,
2013-03-05 09:40:00,38.4,29.0,29.92,NNW,337,16.1,22.2,71,0.00,,,0.00,Rainwise IP-100,2013-03-05 14:40:00,
2013-03-05 09:45:00,38.5,31.0,29.92,WNW,292,19.6,23.3,72,0.00,,,0.00,Rainwise IP-100,2013-03-05 14:45:00,
2013-03-05 09:50:00,38.8,31.0,29.92,WNW,292,16.3,25.9,71,0.00,,,0.00,Rainwise IP-100,2013-03-05 14:50:00,
2013-03-05 09:55:00,39.1,31.0,29.93,NNW,337,9.1,21.5,71,0.00,,,0.00,Rainwise IP-100,2013-03-05 14:55:00,
2013-03-05 10:00:00,39.5,32.0,29.92,NW,315,11.9,23.8,71,0.00,,,0.00,Rainwise IP-100,2013-03-05 15:00:00,
2013-03-05 10:05:00,39.6,32.0,29.92,WNW,292,14.2,19.4,71,0.00,,,0.00,Rainwise IP-100,2013-03-05 15:05:00,
2013-03-05 10:10:00,39.5,32.0,29.93,West,270,2.1,21.9,71,0.00,,,0.00,Rainwise IP-100,2013-03-05 15:10:00,
2013-03-05 10:15:00,39.4,31.0,29.93,WNW,292,10.0,20.3,71,0.00,,,0.00,Rainwise IP-100,2013-03-05 15:15:00,
2013-03-05 10:20:00,39.4,31.0,29.93,NW,315,14.9,28.0,71,0.00,,,0.00,Rainwise IP-100,2013-03-05 15:20:00,
2013-03-05 10:25:00,39.2,31.0,29.92,NW,315,11.7,25.6,71,0.00,,,0.00,Rainwise IP-100,2013-03-05 15:25:00,
2013-03-05 10:30:00,39.1,31.0,29.93,NNW,337,12.1,21.9,72,0.00,,,0.00,Rainwise IP-100,2013-03-05 15:30:00,
2013-03-05 10:35:00,39.3,31.0,29.93,WNW,292,9.3,23.6,72,0.00,,,0.00,Rainwise IP-100,2013-03-05 15:35:00,
2013-03-05 10:40:00,39.3,31.0,29.92,WNW,292,11.2,23.6,72,0.00,,,0.00,Rainwise IP-100,2013-03-05 15:40:00,
2013-03-05 10:45:00,39.2,31.0,29.93,WNW,292,10.5,23.1,72,0.00,,,0.00,Rainwise IP-100,2013-03-05 15:45:00,
2013-03-05 10:50:00,39.2,31.0,29.93,WNW,292,14.7,26.8,72,0.00,,,0.00,Rainwise IP-100,2013-03-05 15:50:00,
2013-03-05 10:55:00,39.3,31.0,29.93,WSW,247,6.5,23.6,72,0.00,,,0.00,Rainwise IP-100,2013-03-05 15:55:00,
2013-03-05 11:00:00,39.3,31.0,29.94,SSE,157,2.6,21.5,71,0.00,,,0.00,Rainwise IP-100,2013-03-05 16:00:00,
2013-03-05 11:05:00,39.4,31.0,29.94,NW,315,16.1,24.0,71,0.00,,,0.00,Rainwise IP-100,2013-03-05 16:05:00,
2013-03-05 11:10:00,39.4,31.0,29.94,WNW,292,21.7,24.2,71,0.00,,,0.00,Rainwise IP-100,2013-03-05 16:10:00,
2013-03-05 11:15:00,39.5,32.0,29.94,WNW,292,14.5,25.6,71,0.00,,,0.00,Rainwise IP-100,2013-03-05 16:15:00,
2013-03-05 11:20:00,39.7,32.0,29.95,WNW,292,20.3,24.9,71,0.00,,,0.00,Rainwise IP-100,2013-03-05 16:20:00,
2013-03-05 11:25:00,39.8,32.0,29.94,WNW,292,8.6,23.3,71,0.00,,,0.00,Rainwise IP-100,2013-03-05 16:25:00,
2013-03-05 11:30:00,39.6,32.0,29.94,WNW,292,11.4,23.8,72,0.00,,,0.00,Rainwise IP-100,2013-03-05 16:30:00,
2013-03-05 11:35:00,39.4,31.0,29.93,WNW,292,10.0,21.5,72,0.00,,,0.00,Rainwise IP-100,2013-03-05 16:35:00,
2013-03-05 11:40:00,39.7,32.0,29.93,WNW,292,11.0,20.5,72,0.00,,,0.00,Rainwise IP-100,2013-03-05 16:40:00,
2013-03-05 11:45:00,40.2,32.0,29.94,WNW,292,16.8,24.0,72,0.00,,,0.00,Rainwise IP-100,2013-03-05 16:45:00,
2013-03-05 11:50:00,40.5,33.0,29.95,NW,315,4.9,23.3,72,0.00,,,0.00,Rainwise IP-100,2013-03-05 16:50:00,
2013-03-05 11:55:00,40.6,33.0,29.95,WNW,292,11.7,23.6,72,0.00,,,0.00,Rainwise IP-100,2013-03-05 16:55:00,
2013-03-05 12:00:00,40.5,33.0,29.95,NNW,337,6.1,21.5,72,0.00,,,0.00,Rainwise IP-100,2013-03-05 17:00:00,
2013-03-05 12:05:00,40.7,33.0,29.94,WNW,292,7.7,26.8,73,0.00,,,0.00,Rainwise IP-100,2013-03-05 17:05:00,
2013-03-05 12:10:00,40.9,33.0,29.95,NNE,22,10.0,24.2,73,0.00,,,0.00,Rainwise IP-100,2013-03-05 17:10:00,
2013-03-05 12:15:00,41.1,33.0,29.95,East,90,5.4,18.7,74,0.00,,,0.00,Rainwise IP-100,2013-03-05 17:15:00,
2013-03-05 12:20:00,41.4,33.0,29.95,NNE,22,7.9,15.9,74,0.00,,,0.00,Rainwise IP-100,2013-03-05 17:20:00,
2013-03-05 12:25:00,41.4,33.0,29.95,NNW,337,14.2,26.8,74,0.00,,,0.00,Rainwise IP-100,2013-03-05 17:25:00,
2013-03-05 12:30:00,40.7,35.0,29.95,NNW,337,5.1,23.3,75,0.00,,,0.00,Rainwise IP-100,2013-03-05 17:30:00,
2013-03-05 12:35:00,40.5,35.0,29.96,NNW,337,8.9,22.6,76,0.00,,,0.00,Rainwise IP-100,2013-03-05 17:35:00,
2013-03-05 12:40:00,40.7,35.0,29.96,NNW,337,6.3,23.1,76,0.00,,,0.00,Rainwise IP-100,2013-03-05 17:40:00,
2013-03-05 12:45:00,40.8,35.0,29.95,WNW,292,6.1,20.1,76,0.00,,,0.00,Rainwise IP-100,2013-03-05 17:45:00,
2013-03-05 12:50:00,40.7,35.0,29.96,NNW,337,4.0,27.7,76,0.00,,,0.00,Rainwise IP-100,2013-03-05 17:50:00,
2013-03-05 12:55:00,40.6,35.0,29.96,WNW,292,6.1,19.6,76,0.00,,,0.00,Rainwise IP-100,2013-03-05 17:55:00,
2013-03-05 13:00:00,40.4,33.0,29.96,North,360,13.5,22.2,77,0.00,,,0.00,Rainwise IP-100,2013-03-05 18:00:00,
2013-03-05 13:05:00,40.2,35.0,29.96,NNW,337,3.3,20.1,78,0.00,,,0.00,Rainwise IP-100,2013-03-05 18:05:00,
2013-03-05 13:10:00,40.0,35.0,29.96,West,270,9.6,22.6,78,0.00,,,0.00,Rainwise IP-100,2013-03-05 18:10:00,
2013-03-05 13:15:00,39.6,35.0,29.95,NW,315,13.3,23.3,80,0.00,,,0.00,Rainwise IP-100,2013-03-05 18:15:00,
2013-03-05 13:20:00,39.4,33.0,29.96,WNW,292,6.3,20.1,80,0.00,,,0.00,Rainwise IP-100,2013-03-05 18:20:00,
2013-03-05 13:25:00,39.5,35.0,29.96,NW,315,13.3,16.1,81,0.00,,,0.00,Rainwise IP-100,2013-03-05 18:25:00,
2013-03-05 13:30:00,39.5,36.0,29.97,WNW,292,9.8,19.6,82,0.00,,,0.00,Rainwise IP-100,2013-03-05 18:30:00,
2013-03-05 13:35:00,39.3,35.0,29.97,NW,315,11.4,22.4,82,0.00,,,0.00,Rainwise IP-100,2013-03-05 18:35:00,
2013-03-05 13:40:00,39.2,35.0,29.97,NNW,337,7.5,18.4,82,0.00,,,0.00,Rainwise IP-100,2013-03-05 18:40:00,
2013-03-05 13:45:00,39.1,35.0,29.96,WNW,292,16.3,18.9,83,0.00,,,0.00,Rainwise IP-100,2013-03-05 18:45:00,
2013-03-05 13:50:00,39.1,35.0,29.97,WNW,292,16.1,22.9,83,0.00,,,0.00,Rainwise IP-100,2013-03-05 18:50:00,
2013-03-05 13:55:00,39.1,35.0,29.97,NNW,337,8.9,20.1,83,0.00,,,0.00,Rainwise IP-100,2013-03-05 18:55:00,
2013-03-05 14:00:00,39.2,35.0,29.97,NNW,337,8.2,18.7,84,0.00,,,0.00,Rainwise IP-100,2013-03-05 19:00:00,
2013-03-05 14:05:00,39.3,35.0,29.97,NNW,337,12.8,23.6,84,0.00,,,0.00,Rainwise IP-100,2013-03-05 19:05:00,
2013-03-05 14:10:00,39.4,35.0,29.97,WNW,292,18.2,18.2,84,0.00,,,0.00,Rainwise IP-100,2013-03-05 19:10:00,
2013-03-05 14:15:00,39.7,36.0,29.97,WNW,292,4.4,19.4,84,0.00,,,0.00,Rainwise IP-100,2013-03-05 19:15:00,
2013-03-05 14:20:00,39.9,36.0,29.98,WNW,292,14.7,19.4,84,0.00,,,0.00,Rainwise IP-100,2013-03-05 19:20:00,
2013-03-05 14:25:00,39.7,36.0,29.98,NW,315,8.9,18.2,84,0.00,,,0.00,Rainwise IP-100,2013-03-05 19:25:00,
2013-03-05 14:30:00,39.8,36.0,29.98,WNW,292,9.3,16.3,84,0.00,,,0.00,Rainwise IP-100,2013-03-05 19:30:00,
2013-03-05 14:35:00,40.2,36.0,29.98,WNW,292,8.4,17.7,84,0.00,,,0.00,Rainwise IP-100,2013-03-05 19:35:00,
2013-03-05 14:40:00,40.4,36.0,29.99,NNW,337,7.2,17.0,82,0.00,,,0.00,Rainwise IP-100,2013-03-05 19:40:00,
2013-03-05 14:45:00,40.3,36.0,29.98,NNW,337,2.3,14.0,82,0.00,,,0.00,Rainwise IP-100,2013-03-05 19:45:00,
2013-03-05 14:50:00,40.4,36.0,29.98,WNW,292,6.3,18.0,82,0.00,,,0.00,Rainwise IP-100,2013-03-05 19:50:00,
2013-03-05 14:55:00,40.4,36.0,29.99,NNW,337,10.5,18.7,82,0.00,,,0.00,Rainwise IP-100,2013-03-05 19:55:00,
2013-03-05 15:00:00,40.3,35.0,29.98,WNW,292,14.9,19.4,81,0.00,,,0.00,Rainwise IP-100,2013-03-05 20:00:00,
2013-03-05 15:05:00,40.3,35.0,29.99,ENE,67,3.5,20.8,81,0.00,,,0.00,Rainwise IP-100,2013-03-05 20:05:00,
2013-03-05 15:10:00,40.2,36.0,29.99,NNW,337,22.2,22.2,82,0.00,,,0.00,Rainwise IP-100,2013-03-05 20:10:00,
2013-03-05 15:15:00,40.0,36.0,29.99,WNW,292,13.3,22.2,82,0.00,,,0.00,Rainwise IP-100,2013-03-05 20:15:00,
2013-03-05 15:20:00,39.9,36.0,30.00,NNW,337,5.1,19.1,83,0.00,,,0.00,Rainwise IP-100,2013-03-05 20:20:00,
2013-03-05 15:25:00,39.8,36.0,30.00,NW,315,16.3,16.3,83,0.00,,,0.00,Rainwise IP-100,2013-03-05 20:25:00,
2013-03-05 15:30:00,39.7,36.0,30.00,NW,315,8.2,16.8,84,0.00,,,0.00,Rainwise IP-100,2013-03-05 20:30:00,
2013-03-05 15:35:00,39.7,36.0,30.00,WNW,292,7.7,17.0,84,0.00,,,0.00,Rainwise IP-100,2013-03-05 20:35:00,
2013-03-05 15:40:00,39.8,36.0,30.00,WNW,292,9.3,16.8,83,0.00,,,0.00,Rainwise IP-100,2013-03-05 20:40:00,
2013-03-05 15:45:00,39.9,36.0,30.01,WNW,292,8.6,18.4,83,0.00,,,0.00,Rainwise IP-100,2013-03-05 20:45:00,
2013-03-05 15:50:00,40.0,36.0,30.01,WNW,292,11.0,18.9,82,0.00,,,0.00,Rainwise IP-100,2013-03-05 20:50:00,
2013-03-05 15:55:00,39.9,36.0,30.01,WNW,292,16.1,19.4,82,0.00,,,0.00,Rainwise IP-100,2013-03-05 20:55:00,
2013-03-05 16:00:00,39.7,36.0,30.02,NW,315,14.5,20.5,83,0.00,,,0.00,Rainwise IP-100,2013-03-05 21:00:00,
2013-03-05 16:05:00,39.7,36.0,30.02,WNW,292,8.6,18.4,83,0.00,,,0.00,Rainwise IP-100,2013-03-05 21:05:00,
2013-03-05 16:10:00,39.7,36.0,30.02,NNW,337,9.8,16.3,84,0.00,,,0.00,Rainwise IP-100,2013-03-05 21:10:00,
2013-03-05 16:15:00,39.8,36.0,30.02,NW,315,9.3,18.7,84,0.00,,,0.00,Rainwise IP-100,2013-03-05 21:15:00,
2013-03-05 16:20:00,39.8,36.0,30.02,ENE,67,1.6,13.8,84,0.00,,,0.00,Rainwise IP-100,2013-03-05 21:20:00,
2013-03-05 16:25:00,39.7,36.0,30.02,NW,315,9.1,18.4,84,0.00,,,0.00,Rainwise IP-100,2013-03-05 21:25:00,
2013-03-05 16:30:00,39.7,36.0,30.02,North,360,7.7,13.5,84,0.00,,,0.00,Rainwise IP-100,2013-03-05 21:30:00,
2013-03-05 16:35:00,39.6,36.0,30.03,NNE,22,2.8,14.7,84,0.00,,,0.00,Rainwise IP-100,2013-03-05 21:35:00,
2013-03-05 16:40:00,39.5,36.0,30.03,NNW,337,5.6,10.5,84,0.00,,,0.00,Rainwise IP-100,2013-03-05 21:40:00,
2013-03-05 16:45:00,39.5,36.0,30.03,WNW,292,3.3,14.7,85,0.00,,,0.00,Rainwise IP-100,2013-03-05 21:45:00,
2013-03-05 16:50:00,39.3,35.0,30.03,WNW,292,10.5,12.4,85,0.00,,,0.00,Rainwise IP-100,2013-03-05 21:50:00,
2013-03-05 16:55:00,39.3,35.0,30.04,North,360,5.4,15.6,85,0.00,,,0.00,Rainwise IP-100,2013-03-05 21:55:00,
2013-03-05 17:00:00,39.2,35.0,30.04,NNW,337,1.6,13.1,85,0.00,,,0.00,Rainwise IP-100,2013-03-05 22:00:00,
2013-03-05 17:05:00,39.2,36.0,30.04,ESE,112,1.4,10.5,86,0.00,,,0.00,Rainwise IP-100,2013-03-05 22:05:00,
2013-03-05 17:10:00,39.1,36.0,30.04,NW,315,7.9,8.9,86,0.00,,,0.00,Rainwise IP-100,2013-03-05 22:10:00,
2013-03-05 17:15:00,39.1,36.0,30.03,NW,315,10.0,13.8,86,0.00,,,0.00,Rainwise IP-100,2013-03-05 22:15:00,
2013-03-05 17:20:00,39.1,36.0,30.04,WNW,292,4.9,11.0,86,0.00,,,0.00,Rainwise IP-100,2013-03-05 22:20:00,
2013-03-05 17:25:00,39.2,36.0,30.04,NW,315,4.2,9.6,87,0.00,,,0.00,Rainwise IP-100,2013-03-05 22:25:00,
2013-03-05 17:30:00,39.1,36.0,30.04,NNW,337,1.2,7.5,87,0.00,,,0.00,Rainwise IP-100,2013-03-05 22:30:00,
2013-03-05 17:35:00,39.1,36.0,30.05,NNW,337,7.9,10.5,87,0.00,,,0.00,Rainwise IP-100,2013-03-05 22:35:00,
2013-03-05 17:40:00,39.0,36.0,30.05,NNW,337,1.4,10.3,87,0.00,,,0.00,Rainwise IP-100,2013-03-05 22:40:00,
2013-03-05 17:45:00,38.7,36.0,30.05,NW,315,1.4,9.3,88,0.00,,,0.00,Rainwise IP-100,2013-03-05 22:45:00,
2013-03-05 17:50:00,38.5,36.0,30.05,NNW,337,3.3,7.7,88,0.00,,,0.00,Rainwise IP-100,2013-03-05 22:50:00,
2013-03-05 17:55:00,38.3,35.0,30.04,NNW,337,0.0,8.4,88,0.00,,,0.00,Rainwise IP-100,2013-03-05 22:55:00,
2013-03-05 18:00:00,38.2,35.0,30.04,NNE,22,0.0,7.9,88,0.00,,,0.00,Rainwise IP-100,2013-03-05 23:00:00,
2013-03-05 18:05:00,38.1,35.0,30.04,NNW,337,4.0,9.6,89,0.00,,,0.00,Rainwise IP-100,2013-03-05 23:05:00,
2013-03-05 18:10:00,37.9,35.0,30.04,NW,315,2.1,6.3,89,0.00,,,0.00,Rainwise IP-100,2013-03-05 23:10:00,
2013-03-05 18:15:00,37.8,36.0,30.04,NW,315,1.6,6.5,90,0.00,,,0.00,Rainwise IP-100,2013-03-05 23:15:00,
2013-03-05 18:20:00,37.8,36.0,30.05,NW,315,4.7,7.0,90,0.00,,,0.00,Rainwise IP-100,2013-03-05 23:20:00,
2013-03-05 18:25:00,37.7,36.0,30.05,NNW,337,3.5,6.1,90,0.00,,,0.00,Rainwise IP-100,2013-03-05 23:25:00,
2013-03-05 18:30:00,37.6,36.0,30.04,WNW,292,3.7,6.3,91,0.00,,,0.00,Rainwise IP-100,2013-03-05 23:30:00,
2013-03-05 18:35:00,37.4,35.0,30.05,NNW,337,0.0,4.7,91,0.00,,,0.00,Rainwise IP-100,2013-03-05 23:35:00,
2013-03-05 18:40:00,37.2,35.0,30.05,NNW,337,2.6,4.0,91,0.00,,,0.00,Rainwise IP-100,2013-03-05 23:40:00,
2013-03-05 18:45:00,36.9,35.0,30.05,NNW,337,2.3,4.0,91,0.00,,,0.00,Rainwise IP-100,2013-03-05 23:45:00,
2013-03-05 18:50:00,36.9,35.0,30.05,NNW,337,2.8,3.3,92,0.00,,,0.00,Rainwise IP-100,2013-03-05 23:50:00,
2013-03-05 18:55:00,36.9,35.0,30.06,NNW,337,3.7,4.9,93,0.00,,,0.00,Rainwise IP-100,2013-03-05 23:55:00,
2013-03-05 19:00:00,36.8,35.0,30.06,NNW,337,1.4,5.1,93,0.00,,,0.00,Rainwise IP-100,2013-03-06 00:00:00,
2013-03-05 19:05:00,36.7,35.0,30.05,NNW,337,1.4,3.3,93,0.00,,,0.00,Rainwise IP-100,2013-03-06 00:05:00,
2013-03-05 19:10:00,36.6,35.0,30.06,NNW,337,1.6,2.6,93,0.00,,,0.00,Rainwise IP-100,2013-03-06 00:10:00,
2013-03-05 19:15:00,36.5,35.0,30.06,NNW,337,1.6,2.6,93,0.00,,,0.00,Rainwise IP-100,2013-03-06 00:15:00,
2013-03-05 19:20:00,36.4,35.0,30.06,NNW,337,2.1,3.3,93,0.00,,,0.00,Rainwise IP-100,2013-03-06 00:20:00,
2013-03-05 19:25:00,36.2,35.0,30.06,NNW,337,2.1,3.0,94,0.00,,,0.00,Rainwise IP-100,2013-03-06 00:25:00,
2013-03-05 19:30:00,36.0,35.0,30.06,NNW,337,2.1,3.5,94,0.00,,,0.00,Rainwise IP-100,2013-03-06 00:30:00,
2013-03-05 19:35:00,35.8,35.0,30.06,NNW,337,1.2,3.7,94,0.00,,,0.00,Rainwise IP-100,2013-03-06 00:35:00,
2013-03-05 19:40:00,35.7,35.0,30.06,NNW,337,0.0,2.8,94,0.00,,,0.00,Rainwise IP-100,2013-03-06 00:40:00,
2013-03-05 19:45:00,35.5,35.0,30.06,NNW,337,0.0,2.6,95,0.00,,,0.00,Rainwise IP-100,2013-03-06 00:45:00,
2013-03-05 19:50:00,35.1,33.0,30.06,NNW,337,1.2,2.1,95,0.00,,,0.00,Rainwise IP-100,2013-03-06 00:50:00,
2013-03-05 19:55:00,34.6,33.0,30.07,NNW,337,1.6,2.3,95,0.00,,,0.00,Rainwise IP-100,2013-03-06 00:55:00,
2013-03-05 20:00:00,34.4,33.0,30.06,NNW,337,0.0,2.3,95,0.00,,,0.00,Rainwise IP-100,2013-03-06 01:00:00,
2013-03-05 20:05:00,34.2,33.0,30.06,NNW,337,0.0,1.9,95,0.00,,,0.00,Rainwise IP-100,2013-03-06 01:05:00,
2013-03-05 20:10:00,34.1,33.0,30.06,NNW,337,0.0,1.6,96,0.00,,,0.00,Rainwise IP-100,2013-03-06 01:10:00,
2013-03-05 20:15:00,34.2,33.0,30.06,NNW,337,0.0,2.3,96,0.00,,,0.00,Rainwise IP-100,2013-03-06 01:15:00,
2013-03-05 20:21:00,34.3,33.0,30.06,NNW,337,2.6,2.6,96,0.00,,,0.00,Rainwise IP-100,2013-03-06 01:21:00,
2013-03-05 20:26:00,34.6,33.0,30.06,NNW,337,0.0,3.7,96,0.00,,,0.00,Rainwise IP-100,2013-03-06 01:26:00,
2013-03-05 20:31:00,34.7,33.0,30.06,NNW,337,0.0,1.2,96,0.00,,,0.00,Rainwise IP-100,2013-03-06 01:31:00,
2013-03-05 20:36:00,34.7,33.0,30.06,NNW,337,0.0,1.6,96,0.00,,,0.00,Rainwise IP-100,2013-03-06 01:36:00,
2013-03-05 20:41:00,34.9,33.0,30.06,NNW,337,0.0,1.2,96,0.00,,,0.00,Rainwise IP-100,2013-03-06 01:41:00,
2013-03-05 20:46:00,35.2,33.0,30.06,NNW,337,1.2,2.3,96,0.00,,,0.00,Rainwise IP-100,2013-03-06 01:46:00,
2013-03-05 20:50:00,35.5,35.0,30.06,NNW,337,1.2,2.3,96,0.00,,,0.00,Rainwise IP-100,2013-03-06 01:50:00,
2013-03-05 20:55:00,35.5,35.0,30.06,NNW,337,0.0,1.9,96,0.00,,,0.00,Rainwise IP-100,2013-03-06 01:55:00,
2013-03-05 21:00:00,35.4,33.0,30.06,NNW,337,0.0,0.0,96,0.00,,,0.00,Rainwise IP-100,2013-03-06 02:00:00,
2013-03-05 21:05:00,35.2,33.0,30.06,NNW,337,0.0,0.0,95,0.00,,,0.00,Rainwise IP-100,2013-03-06 02:05:00,
2013-03-05 21:10:00,35.0,33.0,30.06,NNW,337,0.0,0.0,95,0.00,,,0.00,Rainwise IP-100,2013-03-06 02:10:00,
2013-03-05 21:15:00,34.6,33.0,30.06,NNW,337,0.0,1.6,95,0.00,,,0.00,Rainwise IP-100,2013-03-06 02:15:00,
2013-03-05 21:20:00,34.1,33.0,30.06,NNW,337,0.0,1.4,95,0.00,,,0.00,Rainwise IP-100,2013-03-06 02:20:00,
2013-03-05 21:25:00,34.0,33.0,30.06,NNW,337,1.9,1.9,95,0.00,,,0.00,Rainwise IP-100,2013-03-06 02:25:00,
2013-03-05 21:30:00,34.0,33.0,30.06,NNW,337,0.0,1.9,95,0.00,,,0.00,Rainwise IP-100,2013-03-06 02:30:00,
2013-03-05 21:35:00,33.7,33.0,30.06,NNW,337,0.0,0.0,96,0.00,,,0.00,Rainwise IP-100,2013-03-06 02:35:00,
2013-03-05 21:40:00,33.6,33.0,30.05,NNW,337,0.0,0.0,96,0.00,,,0.00,Rainwise IP-100,2013-03-06 02:40:00,
2013-03-05 21:45:00,33.7,33.0,30.06,NNW,337,0.0,0.0,96,0.00,,,0.00,Rainwise IP-100,2013-03-06 02:45:00,
2013-03-05 21:50:00,33.6,33.0,30.06,NNW,337,0.0,0.0,96,0.00,,,0.00,Rainwise IP-100,2013-03-06 02:50:00,
2013-03-05 21:55:00,33.3,32.0,30.06,NNW,337,0.0,0.0,96,0.00,,,0.00,Rainwise IP-100,2013-03-06 02:55:00,
2013-03-05 22:00:00,33.1,32.0,30.06,NNW,337,0.0,0.0,96,0.00,,,0.00,Rainwise IP-100,2013-03-06 03:00:00,
2013-03-05 22:05:00,32.8,32.0,30.06,NNW,337,0.0,0.0,96,0.00,,,0.00,Rainwise IP-100,2013-03-06 03:05:00,
2013-03-05 22:10:00,32.5,32.0,30.06,NNW,337,0.0,1.4,96,0.00,,,0.00,Rainwise IP-100,2013-03-06 03:10:00,
2013-03-05 22:15:00,32.0,31.0,30.05,NNW,337,0.0,1.4,96,0.00,,,0.00,Rainwise IP-100,2013-03-06 03:15:00,
2013-03-05 22:20:00,31.8,31.0,30.06,NNW,337,0.0,0.0,96,0.00,,,0.00,Rainwise IP-100,2013-03-06 03:20:00,
2013-03-05 22:25:00,31.8,31.0,30.06,NNW,337,0.0,0.0,97,0.00,,,0.00,Rainwise IP-100,2013-03-06 03:25:00,
2013-03-05 22:30:00,31.8,31.0,30.06,NNW,337,0.0,0.0,97,0.00,,,0.00,Rainwise IP-100,2013-03-06 03:30:00,
2013-03-05 22:35:00,31.6,31.0,30.06,NNW,337,0.0,0.0,97,0.00,,,0.00,Rainwise IP-100,2013-03-06 03:35:00,
2013-03-05 22:40:00,31.5,31.0,30.07,NNW,337,0.0,0.0,97,0.00,,,0.00,Rainwise IP-100,2013-03-06 03:40:00,
2013-03-05 22:45:00,31.3,29.0,30.07,NNW,337,1.2,0.0,97,0.00,,,0.00,Rainwise IP-100,2013-03-06 03:45:00,
2013-03-05 22:50:00,30.8,29.0,30.07,NNW,337,0.0,1.6,97,0.00,,,0.00,Rainwise IP-100,2013-03-06 03:50:00,
2013-03-05 22:55:00,30.5,29.0,30.08,NNW,337,0.0,1.4,97,0.00,,,0.00,Rainwise IP-100,2013-03-06 03:55:00,
2013-03-05 23:00:00,30.6,31.0,30.08,NNW,337,0.0,0.0,98,0.00,,,0.00,Rainwise IP-100,2013-03-06 04:00:00,
2013-03-05 23:05:00,30.9,31.0,30.08,NNW,337,0.0,1.4,98,0.00,,,0.00,Rainwise IP-100,2013-03-06 04:05:00,
2013-03-05 23:10:00,31.2,31.0,30.08,NNW,337,0.0,1.2,98,0.00,,,0.00,Rainwise IP-100,2013-03-06 04:10:00,
2013-03-05 23:15:00,31.4,31.0,30.08,NNW,337,0.0,0.0,98,0.00,,,0.00,Rainwise IP-100,2013-03-06 04:15:00,
2013-03-05 23:20:00,31.7,32.0,30.08,NNW,337,1.4,0.0,98,0.00,,,0.00,Rainwise IP-100,2013-03-06 04:20:00,
2013-03-05 23:25:00,32.0,32.0,30.07,NNW,337,0.0,1.4,98,0.00,,,0.00,Rainwise IP-100,2013-03-06 04:25:00,
2013-03-05 23:30:00,32.3,32.0,30.07,NNW,337,3.7,3.7,98,0.00,,,0.00,Rainwise IP-100,2013-03-06 04:30:00,
2013-03-05 23:35:00,32.8,33.0,30.07,NNW,337,0.0,4.0,98,0.00,,,0.00,Rainwise IP-100,2013-03-06 04:35:00,
2013-03-05 23:40:00,33.0,33.0,30.06,NNW,337,0.0,1.9,98,0.00,,,0.00,Rainwise IP-100,2013-03-06 04:40:00,
2013-03-05 23:45:00,33.1,33.0,30.06,NNW,337,0.0,1.4,98,0.00,,,0.00,Rainwise IP-100,2013-03-06 04:45:00,
2013-03-05 23:50:00,33.4,33.0,30.05,NW,315,0.0,3.5,99,0.00,,,0.00,Rainwise IP-100,2013-03-06 04:50:00,
2013-03-05 23:55:00,33.5,35.0,30.05,NW,315,0.0,1.6,99,0.00,,,0.00,Rainwise IP-100,2013-03-06 04:55:00,